Hourly Weather Roundup
Issued by NWS

Home | Current Version | Previous Version | Text Only | Print | Product List | Glossary On
Versions: 1 2 3 4 5 6 7 8 9 10 11 12 13 14 15 16 17 18 19 20 21 22 23 24 25 26 27 28 29 30 31 32 33 34 35 36 37 38 39 40 41 42 43 44 45 46 47 48 49 50
000
NZUS43 KILX 230510
HWRCRS

NWR Hourly Weather Roundup
National Weather Service Lincoln IL
1200 AM CDT TUE MAY 23 2017


CITY           SKY/WX    TMP DP  RH WIND       PRES   REMARKS
Champaign      CLOUDY    59  55  87 SE3       29.95F
Lawrenceville  MOCLDY    62  52  69 SE7       29.95F
Peoria         LGT RAIN  58  57  97 S13       29.92F
Springfield    LGT RAIN  60  57  89 SW6       29.98R
$$


CITY           SKY/WX    TMP DP  RH WIND       PRES   REMARKS
Bloomington    LGT RAIN  59  55  87 W9        29.96S
Danville       CLOUDY    59  55  86 CALM      29.93F
Decatur        CLOUDY    59  56  89 CALM      29.95F
Effingham      CLOUDY    60  58  95 CALM      29.96F
Flora          CLOUDY    64  55  73 CALM      29.95S
Galesburg      CLOUDY    57  53  86 S10       29.88F
Jacksonville   RAIN      56  55  94 CALM      29.96F
Lacon          CLOUDY    58  56  93 SW9G16    29.90F
La Salle       CLOUDY    58  54  84 SW12      29.90F
Lincoln        RAIN      60  58  95 W3        29.97S
Litchfield     MOCLDY    60  56  89 E6        29.95F

CITY           SKY/WX    TMP DP  RH WIND       PRES   REMARKS
Macomb         LGT RAIN  57  55  94 S9        29.94S
Mattoon        CLOUDY    59  56  89 N6        29.95S
Moline         CLOUDY    59  53  80 S7        29.86F
Olney          CLOUDY    63  54  74 SE3       29.96S
Paris          CLOUDY    59  53  81 CALM      29.96S
Pontiac        LGT RAIN  60  58  92 S8        29.94F
Quincy         LGT RAIN  57  56  96 SE6       29.93F
Rantoul        CLOUDY    61  58  89 SE3       29.95F
Robinson       CLOUDY    61  52  72 SE3       29.96F
Taylorville    CLOUDY    59  57  94 CALM      29.95F
Terre Haute    PTCLDY    61  51  70 CALM      29.95F
$$


CITY           SKY/WX    TMP DP  RH WIND       PRES   REMARKS
Burlington     PTCLDY    58  53  84 S7        29.87F
Chicago        CLOUDY    60  53  77 SW6       29.88F
Des Moines     LGT RAIN  57  54  89 W5        29.85F
Evansville     CLOUDY    61  52  72 CALM      29.96F
Indianapolis   CLOUDY    60  48  64 S7        29.96F
Kansas City    CLOUDY    55  54  96 SE10      29.89F FOG
Milwaukee      CLOUDY    62  53  72 SW9       29.85F
St Louis       MOCLDY    68  50  52 N8        29.93F
$$





USA.gov is the U.S. government's official web portal to all federal, state and local government web resources and services.